Flag for Burundi Weather past 2 weeks in Muyinga, Burundi

Now
77 °F

Partly sunny.


Feels Like: 79 °F
Forecast: 59 / 72 °F
Wind: 3 mph from Southeast

Location: Kigali Airport

Current Time: Apr 25, 2015 at 2:40:48 PM

Latest Report: Apr 25, 2015 at 2:30 PM


Visibility: N/A

Pressure: 30.09 "Hg

Humidity: 65%

Dew point: 64 °F

Location of MuyingaLocation

Historic Weather in Muyinga — Graph

°F

Muyinga temperature yesterday

Maximum temperature yesterday: 77 °F (at 2:30 PM)
Minimum temperature yesterday: 61 °F (at 2:30 AM)
Average temperature yesterday: 68 °F

Past Weeks' High & Low Weather Summary

 TemperatureHumidityPressure
High84 °F (Apr 11, 2:30 PM)100% (Apr 10, 3:00 PM)30.27 "Hg (Apr 10, 3:00 PM)
Low61 °F (Apr 13, 6:00 AM)48% (Apr 11, 3:30 PM)30.01 "Hg (Apr 14, 2:30 PM)
Average69 °F89%30.15 "Hg
* Reported Apr 10 1:00 PM — Apr 25 1:30 PM, Muyinga, Weather by CustomWeather, © 2015

Note: Actual official high and low records may vary slightly from our data, if they occured in-between our weather recording intervals... More about our weather records

Advertising

Muyinga weather history for previous 24 hours

 ConditionsComfort  
Time TempWeatherWind HumidityBarometerVisibility
1:30 PM
Sat, Apr 25
75 °FBroken clouds.6 mph74%30.12 "HgN/A
1:00 PM75 °FBroken clouds.7 mph74%30.12 "HgN/A
12:30 PM73 °FBroken clouds.7 mph78%30.15 "HgN/A
12:00 PM75 °FBroken clouds.9 mph74%30.15 "HgN/A
11:30 AM75 °FBroken clouds.8 mph74%30.18 "HgN/A
11:00 AM72 °FBroken clouds.7 mph83%30.18 "HgN/A
10:30 AM72 °FPartly sunny.3 mph88%30.21 "HgN/A
10:00 AM70 °FPartly sunny.5 mph94%30.21 "HgN/A
9:30 AM70 °FPartly sunny.6 mph94%30.21 "HgN/A
9:00 AM70 °FPartly sunny.No wind100%30.21 "HgN/A
8:00 AM68 °FPartly sunny.No wind100%30.18 "Hg5 mi
7:30 AM66 °FPartly sunny.No wind100%30.18 "Hg5 mi
7:00 AM64 °FPartly sunny.No wind100%30.18 "HgN/A
6:30 AM63 °FPartly sunny.No wind100%30.15 "HgN/A
5:30 AM63 °FPassing clouds.No wind100%30.15 "HgN/A
5:00 AM64 °FPassing clouds.3 mph100%30.15 "HgN/A
4:30 AM64 °FPassing clouds.3 mph100%30.15 "HgN/A
3:30 AM63 °FPassing clouds.3 mph100%30.12 "HgN/A
3:00 AM63 °FPassing clouds.No wind100%30.12 "HgN/A
2:30 AM64 °FPassing clouds.No wind100%30.12 "HgN/A
2:00 AM64 °FPassing clouds.No wind100%30.12 "HgN/A
1:30 AM64 °FPassing clouds.No wind100%30.15 "HgN/A
1:00 AM64 °FPassing clouds.No wind100%30.15 "HgN/A
12:30 AM66 °FPassing clouds.No wind100%30.15 "HgN/A
12:00 AM66 °FPassing clouds.5 mph100%30.15 "HgN/A
11:30 PM
Fri, Apr 24
66 °FPassing clouds.6 mph100%30.18 "HgN/A
11:00 PM66 °FPassing clouds.3 mph100%30.18 "HgN/A
10:00 PM66 °FThunderstorms. Passing clouds.5 mph100%30.18 "HgN/A
9:30 PM68 °FPassing clouds.3 mph100%30.15 "HgN/A
9:00 PM68 °FPassing clouds.5 mph100%30.15 "HgN/A
8:30 PM68 °FPassing clouds.5 mph94%30.15 "HgN/A
8:00 PM70 °FPassing clouds.3 mph88%30.12 "HgN/A
7:00 PM70 °FPassing clouds.3 mph83%30.12 "HgN/A
6:30 PM72 °FPassing clouds.5 mph78%30.12 "HgN/A
6:00 PM77 °FPassing clouds.5 mph69%30.09 "HgN/A
5:30 PM77 °FScattered clouds.5 mph69%30.09 "HgN/A
5:00 PM77 °FScattered clouds.5 mph69%30.09 "HgN/A
4:30 PM77 °FScattered clouds.5 mph69%30.09 "HgN/A
4:00 PM75 °FScattered clouds.5 mph74%30.09 "HgN/A
3:30 PM77 °FPartly sunny.5 mph69%30.09 "HgN/A
3:00 PM77 °FPartly sunny.N/A69%30.09 "HgN/A
2:30 PM77 °FPartly sunny.5 mph69%30.12 "HgN/A
Weather by CustomWeather, © 2015

See weather overviewHow to use our weather pages